Wind_Speed
18 18 17 17 18 17 16 15 16 16 14 13 12 12 11 11 13 13 12 12 12 11 10 9 9 8 8 8 8 8 8 8 8 8 9 10 12 13 14 15 17 18 19 19 20 21 22 23 24 25 26 27 28 29 30 29 29 28 27 27 27 27 27 27 27 29 30 30 29 28 27 28 28 28 28 31 34 33 33 34 32 28 23 15 8
19 19 18 18 18 17 16 16 17 16 14 13 12 12 10 11 13 13 13 13 12 10 9 8 7 7 7 7 7 7 7 8 8 8 9 10 11 12 13 14 15 17 18 19 19 20 21 22 23 24 25 26 27 28 28 28 28 28 27 27 27 27 27 26 27 29 30 31 30 29 28 28 28 29 28 30 34 34 34 36 35 33 30 22 12
19 19 19 18 17 16 16 17 17 15 13 12 12 11 10 9 11 13 13 13 12 10 9 7 6 6 6 6 6 6 7 8 8 8 9 9 10 11 12 13 14 16 17 18 19 20 20 21 22 23 24 25 26 27 27 27 28 27 27 27 27 27 27 26 26 27 29 31 31 30 29 29 29 29 29 30 33 34 35 36 37 36 34 27 16
19 19 18 17 16 16 17 17 16 14 12 11 11 11 10 8 9 11 12 12 12 10 9 8 6 5 5 5 5 5 6 7 7 7 8 9 9 10 11 11 12 14 15 16 18 19 20 21 22 22 23 24 25 25 26 26 27 26 26 27 27 27 28 27 26 27 29 31 32 31 30 30 29 29 30 30 31 34 35 35 36 36 36 31 23
19 18 17 16 15 16 17 16 14 13 12 11 10 10 9 8 7 9 11 11 11 10 9 8 6 5 4 4 4 4 5 6 7 7 8 8 9 9 10 10 11 12 14 15 17 18 19 20 21 22 22 23 23 24 24 25 26 25 26 27 27 28 28 28 27 27 29 31 32 32 31 30 30 30 30 30 30 33 35 35 35 35 35 33 30
18 17 16 16 16 17 16 14 13 12 11 10 10 9 9 8 6 7 9 10 10 10 9 8 7 5 4 3 3 3 4 5 6 6 7 8 8 8 8 9 10 11 13 14 16 18 19 20 21 21 21 22 22 22 23 23 24 24 25 26 27 28 28 28 27 27 27 30 32 32 32 31 30 30 30 31 30 31 34 36 35 35 34 34 32
18 17 17 17 17 16 14 13 12 11 10 9 9 8 8 8 6 6 7 9 9 9 8 8 7 6 4 3 3 3 4 5 5 5 6 7 7 7 8 9 10 11 13 14 16 17 19 20 21 21 21 21 21 21 21 22 22 23 23 25 27 27 28 28 27 26 26 28 30 32 32 31 30 30 30 30 30 30 31 34 35 35 34 34 33
17 17 17 17 16 15 14 12 11 10 9 9 8 7 7 8 7 6 6 7 8 8 8 7 7 6 4 3 3 3 4 5 4 4 5 5 6 6 7 8 10 12 13 15 16 17 19 20 20 21 20 20 19 19 20 20 21 21 22 24 26 26 27 27 27 26 26 27 28 30 31 30 30 29 29 29 30 30 30 31 33 34 34 33 33
17 17 16 15 15 14 13 12 11 10 9 8 7 6 6 8 7 6 5 6 6 6 7 7 7 6 5 3 2 2 4 5 4 4 5 5 5 6 6 7 9 11 13 15 16 17 19 19 20 20 20 19 18 18 19 19 19 20 21 23 24 25 26 27 27 26 25 25 26 28 29 30 29 29 29 29 29 29 30 30 30 31 32 32 32
16 15 14 14 13 13 13 12 11 10 9 7 6 6 6 7 6 5 4 5 5 5 5 6 7 7 5 4 3 2 3 4 4 4 4 4 5 5 6 7 8 10 12 14 16 17 18 19 19 19 19 18 17 18 18 18 18 18 20 22 23 24 25 26 26 26 25 24 25 26 28 29 29 29 29 29 29 28 29 29 29 29 29 29 29
14 13 13 13 12 12 12 11 10 10 8 7 6 6 6 6 5 4 4 6 6 5 5 5 6 7 5 4 3 2 3 3 4 4 4 5 5 6 7 7 8 10 11 13 15 16 18 18 18 18 18 17 17 17 17 17 17 17 18 21 22 24 25 26 26 26 25 24 24 25 27 29 29 29 28 28 28 28 28 28 27 27 27 27 27
13 12 11 11 10 10 10 9 9 9 9 7 6 6 6 5 4 3 5 6 6 4 4 5 5 6 6 5 3 2 2 3 3 4 4 5 5 6 7 8 9 10 11 13 15 16 17 18 17 17 17 17 16 16 16 17 16 16 17 20 22 23 24 25 26 26 25 24 24 24 26 28 29 29 28 28 28 27 27 27 26 26 25 25 25
11 10 10 9 9 8 8 7 8 8 8 8 7 6 6 5 4 4 5 5 5 4 4 5 5 6 6 5 4 3 2 2 2 3 4 4 5 6 6 8 9 10 11 13 15 16 16 17 17 17 17 16 16 15 16 16 16 15 17 20 21 22 24 25 26 26 25 24 24 24 25 26 28 29 29 28 27 27 27 26 25 25 25 24 24
8 8 8 7 7 7 6 6 7 7 8 7 7 6 6 6 5 5 5 5 5 4 5 5 5 5 5 5 4 3 2 0 1 2 3 4 5 6 6 7 9 10 11 13 14 15 16 17 16 16 16 15 15 15 15 15 15 14 17 19 20 21 23 25 26 26 25 24 24 24 24 25 27 28 29 28 27 27 26 26 24 24 23 23 23
7 6 7 6 6 6 6 6 7 7 7 7 6 5 5 6 7 6 5 5 5 4 5 5 5 4 3 4 4 3 3 1 1 3 4 4 5 7 7 8 9 10 11 13 14 15 16 16 15 15 15 14 14 14 13 14 14 14 16 18 19 20 23 24 25 25 25 24 24 23 23 24 25 26 28 28 28 27 26 26 25 23 22 22 22
6 6 6 5 5 6 6 6 7 7 6 6 5 5 5 6 7 7 6 5 6 5 5 5 4 4 3 3 3 3 2 2 2 3 3 5 6 7 8 8 8 9 11 13 14 14 15 15 14 13 14 13 13 12 12 13 14 14 16 17 18 19 21 23 25 25 25 25 24 23 23 23 24 25 26 27 28 27 26 25 25 24 22 21 20
6 6 5 5 5 5 6 6 7 6 6 5 5 6 6 6 7 7 6 6 6 5 5 5 4 4 3 3 3 2 2 1 2 2 2 3 5 7 8 9 8 9 11 12 13 14 14 14 14 13 13 12 11 11 10 12 13 13 15 16 17 18 20 22 24 25 25 25 24 23 22 22 22 23 24 26 27 27 26 25 24 24 23 22 20
5 5 5 5 5 5 6 6 6 6 5 5 5 5 6 7 7 7 6 5 5 5 4 4 4 4 4 3 3 3 2 1 1 0 0 2 4 5 7 8 8 9 11 11 12 13 13 13 14 13 12 10 9 9 9 11 12 13 14 15 16 17 18 20 22 23 24 24 24 23 22 22 21 22 22 23 25 26 26 25 24 24 23 22 21
4 4 4 5 5 5 6 5 5 6 5 5 4 4 5 7 8 8 7 5 5 5 4 4 4 4 4 4 4 3 2 2 1 0 0 2 5 6 6 7 8 9 11 11 12 13 13 13 13 13 11 10 8 8 8 10 11 12 13 14 15 15 16 18 20 21 22 23 24 23 22 21 21 21 21 21 23 24 25 25 25 24 23 22 21
3 3 4 5 5 5 5 5 5 5 5 4 4 4 5 6 7 8 8 6 5 5 4 4 4 4 4 4 4 4 3 3 3 2 2 3 5 7 8 8 9 10 11 12 12 12 12 12 12 12 11 10 8 7 8 9 10 10 11 12 13 14 15 16 18 19 19 21 22 22 22 21 21 21 20 20 21 21 22 23 24 24 23 22 21
3 3 4 5 5 5 5 6 6 5 5 4 4 4 5 5 6 7 7 7 6 7 6 6 5 5 4 4 3 4 4 4 4 4 5 5 5 6 8 10 11 11 12 14 13 12 12 11 11 11 11 9 7 7 7 8 9 9 10 11 12 13 13 14 15 16 17 18 19 20 21 21 21 20 20 19 19 19 20 21 22 22 23 22 22
3 3 4 5 5 6 6 6 6 6 5 5 5 5 5 6 6 7 7 7 7 8 8 8 7 7 6 5 4 4 4 4 5 5 6 5 5 6 8 10 11 12 13 13 12 11 10 10 10 10 10 9 7 6 6 7 8 8 9 10 11 11 12 13 13 14 15 15 16 18 19 19 19 19 19 19 18 18 18 19 19 20 21 21 21
3 4 5 5 5 6 6 6 6 6 6 6 5 5 6 6 7 7 8 8 8 8 8 8 8 8 8 7 6 5 4 4 5 5 6 7 7 7 9 10 10 11 12 12 11 9 9 9 9 9 9 8 7 6 6 6 7 8 8 8 9 10 11 12 12 12 13 13 14 15 16 17 17 18 18 18 18 17 17 17 17 18 19 19 20
4 4 5 6 6 6 7 7 7 8 7 7 7 6 6 6 6 7 7 8 8 8 7 7 7 7 7 7 7 6 5 5 5 5 6 7 7 8 9 10 10 10 10 10 9 8 8 8 8 8 8 7 6 6 5 6 7 7 7 7 8 9 9 11 11 11 12 12 12 13 14 15 15 16 16 16 16 16 16 16 16 16 16 17 17
5 5 5 6 7 8 8 8 8 8 8 7 7 7 6 6 6 6 6 6 6 6 6 6 6 6 7 8 7 6 5 5 6 6 6 6 7 8 9 9 9 9 8 7 7 7 7 8 7 7 7 7 6 5 5 5 6 6 5 6 7 8 8 10 11 11 11 11 10 11 11 12 13 14 14 15 15 14 14 15 15 14 14 15 15
6 6 6 6 7 7 8 9 8 8 8 8 7 6 6 5 5 5 5 4 4 4 4 4 4 5 7 8 7 6 6 6 6 6 6 6 6 7 7 7 7 6 6 6 5 6 6 7 7 7 6 6 5 5 5 5 5 5 4 5 6 6 7 9 11 10 10 10 9 9 10 10 11 12 12 13 13 13 13 13 13 14 14 13 13
7 7 6 6 6 7 7 8 8 8 8 8 7 7 6 6 5 5 5 4 4 4 3 3 3 4 5 6 6 5 5 5 5 5 5 4 4 5 5 5 5 5 5 6 6 6 6 6 7 6 5 5 5 5 5 5 4 4 4 5 4 4 5 8 10 10 9 9 8 8 9 9 10 10 11 12 12 12 12 11 12 12 13 13 13
7 7 7 7 6 6 6 7 8 8 8 8 8 8 7 7 6 6 5 5 5 5 4 4 4 4 4 4 4 3 3 3 4 4 5 4 4 4 4 4 4 4 5 6 6 6 6 6 6 6 5 4 4 5 5 4 3 4 4 4 3 2 4 6 9 9 8 8 8 7 8 8 8 8 9 10 11 11 11 11 11 11 11 11 11
5 6 6 7 7 7 6 6 7 7 8 8 8 8 8 8 7 7 7 7 6 6 5 5 5 5 5 5 4 3 3 3 3 4 5 5 5 5 4 4 4 4 4 5 6 6 5 5 5 5 5 5 4 4 4 3 3 3 3 3 2 1 2 4 7 8 8 7 6 6 6 7 7 7 7 8 9 10 10 10 10 10 10 10 10
5 5 6 6 6 6 6 6 6 6 7 7 7 7 7 7 7 7 7 7 7 7 7 6 6 6 5 6 6 5 4 3 4 5 6 6 5 4 4 5 4 4 4 4 4 5 5 5 4 5 4 4 4 3 3 3 2 2 2 1 1 1 2 3 5 6 7 7 5 4 5 5 6 6 7 7 7 8 8 9 9 9 9 9 9
6 6 5 5 5 5 5 6 6 6 6 6 6 6 7 7 6 6 6 7 7 7 8 8 7 6 6 6 6 6 5 4 4 5 6 5 4 4 4 5 5 4 4 4 4 3 3 3 3 3 3 3 3 3 2 2 1 1 1 1 1 2 2 4 5 6 6 6 5 3 4 4 4 5 5 6 5 5 6 6 6 7 7 7 7
7 7 7 6 6 5 5 5 6 6 7 7 7 7 6 6 6 6 6 6 6 7 7 7 7 6 6 7 7 7 6 5 4 5 5 4 3 3 4 4 4 4 4 4 3 3 2 2 2 2 2 1 2 2 2 1 1 1 1 1 1 2 3 4 6 6 6 5 4 4 4 4 4 3 3 3 3 3 3 3 3 3 4 5 5
9 9 8 7 7 7 6 6 6 6 7 7 8 8 7 7 7 6 6 6 6 6 6 6 6 6 6 7 8 8 8 7 6 5 5 3 2 2 2 2 3 3 4 4 3 3 3 3 3 2 2 2 2 2 2 2 2 2 2 3 3 4 4 5 6 6 5 5 4 4 4 4 4 3 2 1 1 2 2 2 1 1 1 2 3
11 10 10 9 9 9 8 7 7 7 7 8 8 8 8 8 8 7 7 7 6 6 6 5 5 5 5 6 7 8 9 8 8 7 6 5 4 2 1 1 2 3 4 4 4 4 4 4 4 3 3 3 4 4 3 3 3 4 4 5 5 5 6 6 5 5 5 5 4 4 4 4 4 4 3 3 2 2 3 3 2 1 1 2 1
13 12 12 11 11 11 10 9 9 9 9 9 9 9 9 9 9 8 8 8 8 8 7 6 5 5 5 5 6 7 8 9 9 8 7 5 5 4 3 3 3 4 4 5 5 4 3 3 3 3 3 4 4 4 4 4 5 5 5 5 5 5 6 6 6 5 6 6 5 5 4 4 4 4 4 4 4 4 4 5 4 3 3 4 4
16 15 14 13 14 13 12 11 11 11 10 10 10 10 9 9 9 9 9 9 9 9 8 7 7 6 6 6 7 8 8 9 9 9 8 7 6 6 5 5 5 5 5 5 5 5 4 4 4 4 4 4 4 5 5 5 5 5 5 6 6 5 5 5 5 5 5 6 6 5 4 4 4 4 4 4 4 5 6 6 5 5 5 6 6
19 17 16 16 16 16 14 13 13 13 12 12 12 11 11 10 10 10 10 10 10 9 8 8 8 8 8 8 8 8 8 8 8 9 9 8 8 7 7 7 7 7 7 6 6 6 6 5 5 6 6 6 6 6 6 6 6 6 6 6 6 5 5 6 6 5 4 5 5 5 4 4 3 4 4 4 4 5 6 7 7 7 8 8 8
21 20 19 19 19 18 17 16 15 15 14 13 13 13 12 12 11 11 11 11 10 10 10 10 10 10 10 10 10 9 8 8 8 9 9 10 9 9 9 9 9 9 8 8 7 7 7 7 7 8 8 8 8 8 8 8 8 8 7 7 7 6 6 7 7 5 4 5 6 5 5 4 4 4 4 4 4 5 5 6 7 8 9 9 9
23 22 21 21 21 20 19 18 18 17 16 15 15 15 14 14 13 12 12 12 11 11 11 12 11 11 11 11 11 10 9 9 9 10 10 10 10 9 10 11 11 11 10 10 9 9 8 9 9 9 10 10 10 10 10 9 9 9 8 8 8 8 7 8 9 7 5 6 7 6 6 5 5 5 5 6 6 6 6 7 8 8 9 10 10
25 24 24 23 23 22 21 21 21 20 19 19 18 17 16 16 15 14 14 13 13 13 13 13 13 12 12 12 12 11 11 11 12 12 12 11 10 10 10 11 11 12 12 11 11 11 11 11 11 11 12 12 12 12 12 11 11 11 10 10 9 8 7 8 10 9 6 6 8 8 8 7 7 7 7 8 8 8 8 9 9 9 9 9 10
26 26 25 25 24 23 23 22 23 22 22 21 21 20 19 18 17 15 15 15 16 16 15 15 15 15 14 14 13 13 13 13 14 14 14 13 11 11 11 11 11 12 12 13 13 14 13 13 13 13 13 14 14 14 13 13 13 13 13 12 11 8 6 7 11 11 8 6 7 9 9 8 8 8 8 9 10 10 10 10 10 10 10 10 10
28 27 26 25 25 24 23 22 23 23 24 24 23 23 22 21 19 18 17 18 19 19 18 17 17 17 16 16 15 15 15 15 15 15 15 15 14 13 13 13 13 13 14 14 15 16 16 16 15 15 14 14 15 15 14 14 13 13 14 14 13 11 7 5 8 11 11 9 8 10 10 10 10 9 9 9 9 10 10 11 11 11 11 11 11
29 28 26 25 25 25 24 23 23 24 25 25 25 24 24 23 23 22 21 21 21 21 20 19 19 18 18 18 18 17 17 17 16 16 16 16 16 15 15 15 15 15 16 16 17 18 18 18 18 17 16 15 16 16 16 14 14 14 14 13 13 12 10 7 6 10 12 12 11 12 13 13 12 12 11 11 11 10 11 11 11 12 12 12 12
29 29 28 26 25 25 25 25 25 25 25 24 24 24 25 25 25 24 24 24 24 23 22 21 21 20 20 20 20 20 20 19 18 18 18 17 17 16 16 17 18 18 18 19 19 20 20 20 20 19 18 17 17 17 17 16 15 14 14 14 13 13 12 11 10 11 13 14 13 13 14 14 14 14 14 14 14 13 13 13 13 13 13 13 13
28 28 29 28 25 24 24 25 26 26 25 24 24 25 25 26 26 25 25 26 26 25 25 24 23 22 22 22 22 23 22 21 21 20 20 20 19 18 18 18 19 19 20 20 21 21 21 21 20 19 19 19 19 19 18 17 16 15 15 15 14 14 14 13 13 14 15 16 16 15 15 16 15 15 15 16 16 16 16 16 16 16 16 16 16
28 28 28 28 26 25 25 25 25 25 25 25 26 26 26 26 26 26 27 27 27 27 26 26 25 24 24 24 24 24 24 24 23 22 22 22 21 21 20 20 20 20 21 22 22 22 22 22 20 18 18 19 20 20 20 19 18 17 17 17 16 16 16 15 15 16 17 18 18 17 17 19 18 16 16 17 17 18 18 18 19 19 19 19 19
28 28 28 28 27 26 25 25 24 24 24 25 26 25 25 25 26 26 26 27 27 27 27 27 27 27 27 26 26 25 25 25 25 24 23 23 22 22 22 22 23 23 24 24 24 23 24 24 22 20 19 20 20 21 21 21 20 20 19 19 19 19 19 17 16 16 18 19 21 20 20 22 22 20 18 18 18 19 19 19 19 20 20 21 21
30 30 29 28 27 27 26 25 24 24 24 24 24 24 25 25 25 26 26 26 26 26 27 27 27 28 27 27 27 28 27 27 26 26 26 25 24 24 24 24 25 25 26 25 25 25 25 25 23 22 21 22 22 21 22 22 22 22 22 22 22 21 21 20 17 17 19 21 22 22 22 23 25 24 21 20 20 20 20 20 20 21 21 21 22
32 32 32 30 28 27 27 26 26 25 23 23 23 23 24 25 25 25 25 25 25 26 27 28 28 28 27 27 28 28 29 29 29 29 28 28 27 26 25 26 26 26 26 26 26 27 27 26 25 24 23 23 24 24 24 25 25 25 24 24 24 24 24 23 21 20 21 22 23 22 23 24 26 26 25 23 23 23 22 22 22 23 23 23 23
34 33 33 31 29 29 30 29 29 28 26 25 24 24 24 24 24 24 24 24 25 25 26 27 28 28 28 28 28 28 29 29 29 29 29 29 28 28 27 27 27 27 27 27 28 30 30 28 28 27 25 25 26 26 26 27 28 27 27 26 26 26 26 26 25 23 23 24 24 24 23 24 26 28 27 26 25 25 24 24 24 24 25 25 25
35 34 34 33 32 32 33 33 32 32 31 29 27 26 26 26 26 26 26 26 26 27 28 29 30 30 31 31 30 30 30 28 27 29 31 29 28 28 28 29 28 28 28 29 29 31 31 30 30 30 29 29 29 29 29 30 30 30 30 29 29 29 29 29 29 27 26 26 26 25 25 25 26 28 29 28 27 26 26 26 26 26 27 27 28
Wind_Direction
138 137 135 134 132 130 132 135 137 139 138 133 128 126 121 115 107 101 99 101 108 113 112 107 103 99 92 85 79 78 80 79 75 66 61 61 61 59 54 48 45 44 42 40 38 35 32 29 27 26 25 25 27 29 31 35 38 41 41 38 33 33 34 32 31 32 31 31 31 30 30 32 33 33 30 26 23 19 20 22 24 29 33 44 74
135 134 134 134 132 133 136 138 138 138 136 131 129 127 123 116 109 105 102 102 106 110 112 112 109 102 90 79 71 69 73 73 70 64 59 56 55 53 51 46 41 39 37 34 32 31 29 27 25 24 23 23 25 27 29 32 36 39 40 39 37 36 37 34 31 31 31 31 32 31 31 32 34 35 33 29 27 26 27 30 32 38 40 45 66
132 132 133 132 133 136 137 136 136 135 132 130 129 129 126 117 110 108 107 105 106 108 110 111 109 102 91 79 69 65 70 70 66 60 55 52 48 46 46 41 37 35 32 28 27 26 25 23 22 22 22 22 23 25 27 30 33 37 40 40 37 37 39 37 34 32 32 32 33 33 32 33 35 36 36 33 31 32 34 36 38 45 47 46 62
130 129 130 131 134 135 134 134 133 132 130 130 130 131 127 117 108 108 108 107 108 111 111 110 108 103 93 83 72 65 72 74 68 59 52 48 44 40 38 35 32 29 26 22 21 21 21 20 20 20 21 21 22 25 28 30 31 34 38 39 38 37 38 38 36 34 33 32 33 34 34 33 35 38 38 38 36 36 40 42 44 50 54 55 68
129 129 130 132 133 132 132 131 130 129 130 131 133 133 128 120 109 107 108 110 113 114 112 112 112 106 95 84 72 59 63 71 69 61 51 44 40 35 31 28 25 23 20 16 16 17 16 17 17 19 21 21 23 26 30 31 31 33 37 39 38 37 37 37 37 35 33 32 32 33 35 34 35 38 40 42 41 40 43 48 50 54 59 64 71
128 130 131 131 130 130 129 129 129 129 129 131 134 133 129 122 109 103 108 113 117 117 115 114 114 108 98 83 63 46 47 56 61 60 52 41 36 29 23 20 16 17 15 11 11 12 14 15 17 19 21 23 24 29 32 33 33 34 37 39 38 38 39 38 37 37 35 34 33 33 35 36 36 39 42 44 45 44 46 51 57 60 63 69 75
127 128 128 128 127 127 126 126 126 127 128 129 132 132 127 123 112 104 110 115 119 121 118 115 113 106 96 76 50 36 36 40 47 56 53 41 34 26 18 12 9 9 9 7 7 8 11 15 18 20 22 25 27 31 35 37 37 36 39 40 39 40 41 40 39 39 38 37 35 34 35 38 38 39 43 45 48 49 49 53 59 65 69 73 79
124 124 125 125 124 124 124 124 124 124 124 126 130 130 124 122 118 116 118 119 123 125 120 115 111 104 95 74 46 33 34 30 26 42 48 39 31 23 14 9 5 4 4 3 4 6 9 14 19 21 23 26 29 35 38 40 41 40 42 42 41 41 42 43 42 41 40 40 38 36 36 39 41 41 44 47 50 52 53 55 59 65 71 76 82
121 122 123 123 123 122 121 120 119 119 119 121 125 124 120 123 129 134 128 121 126 127 121 117 112 105 102 91 67 44 39 27 12 24 38 29 18 13 8 5 2 1 360 359 360 4 8 13 19 21 23 27 33 39 42 44 45 44 45 45 43 43 43 44 45 44 43 43 42 40 38 40 43 44 45 48 51 54 56 57 60 64 70 76 82
121 122 122 121 121 120 119 118 116 115 117 120 124 123 122 131 144 147 128 113 112 109 111 114 113 111 110 106 93 64 43 23 358 3 23 15 360 357 358 357 357 357 357 356 358 2 7 12 17 20 23 28 35 43 47 47 49 48 48 47 45 44 45 45 47 47 46 46 45 43 41 41 43 46 47 49 52 56 58 60 62 65 69 74 80
120 120 119 119 119 119 120 119 118 117 120 125 128 127 129 143 155 141 108 98 93 90 100 110 112 115 116 114 103 72 46 22 355 352 6 4 352 349 350 353 354 356 358 359 360 3 8 12 15 19 24 30 34 44 51 51 52 52 51 49 46 46 46 46 47 49 48 48 48 46 44 43 44 46 48 50 52 55 59 62 65 67 70 74 78
117 116 115 115 117 118 120 121 122 124 127 133 137 136 140 152 155 121 100 98 96 97 108 115 117 120 121 118 113 89 53 23 1 348 348 349 347 345 348 353 353 355 360 4 5 5 9 14 15 17 24 30 33 44 55 56 55 55 54 51 48 47 47 46 47 49 49 49 49 50 48 46 45 47 49 51 53 55 59 62 66 69 71 74 77
115 114 113 115 118 122 123 124 128 131 136 142 148 150 148 147 141 121 114 111 111 118 124 128 130 130 126 119 112 99 74 29 354 337 330 332 337 342 350 357 357 357 3 9 10 6 8 14 14 15 23 28 32 44 56 59 59 59 57 54 49 48 48 47 47 49 50 49 49 51 51 49 47 48 50 52 54 56 58 62 65 69 72 75 77
115 116 118 122 127 129 130 132 134 135 138 142 149 154 146 137 134 133 135 127 119 130 136 134 135 135 129 121 117 115 113 106 313 305 305 320 336 345 353 2 2 358 3 12 12 7 7 11 12 14 21 27 33 42 54 62 64 63 61 57 51 49 50 49 48 48 50 50 49 51 53 52 50 49 50 52 55 57 59 61 64 68 71 75 78
119 119 121 125 130 132 133 137 137 135 134 137 143 149 144 137 137 142 148 133 120 128 133 129 131 135 133 130 133 141 147 163 253 283 299 326 342 343 349 4 5 355 2 11 9 6 5 4 9 15 19 25 33 39 51 63 68 67 64 59 53 50 51 51 49 48 50 51 50 50 52 54 54 52 51 52 54 57 59 61 64 67 71 74 77
124 123 122 123 126 126 127 132 134 134 135 137 143 148 148 144 144 150 154 139 128 130 127 126 133 142 154 166 161 159 163 174 218 263 303 333 337 336 343 358 357 349 1 9 3 360 359 359 7 17 19 24 32 37 51 66 72 72 68 63 57 52 52 53 52 49 49 51 51 51 51 53 55 55 55 54 54 56 59 62 64 66 69 73 76
133 133 130 127 123 116 118 126 129 133 137 141 146 149 150 149 149 157 162 147 138 142 139 141 150 154 172 193 181 169 178 203 217 239 309 330 325 327 335 344 344 343 357 5 355 352 355 356 4 16 20 24 33 39 54 71 77 76 72 67 62 57 55 55 54 51 50 50 51 51 52 52 55 57 57 57 56 56 58 61 64 66 67 70 74
143 141 137 131 123 118 121 128 132 135 140 145 150 156 155 152 149 158 169 161 151 154 157 162 165 164 178 192 187 183 202 233 236 181 325 305 307 318 326 333 337 340 352 0 354 349 353 355 360 11 20 26 35 44 60 76 82 80 76 72 67 61 58 58 57 54 51 51 51 51 52 53 54 57 58 59 59 58 58 59 62 65 68 69 72
151 141 137 133 131 131 132 135 137 138 143 148 154 165 166 157 152 157 171 174 167 164 166 172 172 175 190 190 180 185 199 213 213 162 269 287 294 305 313 320 329 336 347 360 359 351 351 355 358 6 18 28 38 51 67 80 85 84 79 76 73 66 62 60 60 57 53 52 52 51 51 53 54 56 58 59 60 61 61 60 61 63 66 69 72
157 145 141 143 145 145 143 144 145 144 146 151 156 170 174 163 157 163 173 176 171 172 174 175 169 177 200 198 178 183 198 206 206 204 225 261 282 297 310 321 330 337 347 357 357 351 350 355 359 8 21 30 41 59 74 83 88 87 82 79 77 71 65 62 61 61 55 52 53 52 51 52 52 54 57 58 59 61 62 63 62 63 64 67 70
167 160 150 152 155 155 154 154 154 153 155 160 164 172 176 169 164 170 177 174 168 171 174 173 169 177 204 214 196 195 207 216 223 226 233 250 276 298 315 326 333 338 347 354 353 350 352 356 2 13 27 35 46 65 79 86 91 90 82 80 80 74 66 60 60 63 60 54 54 54 53 53 52 52 55 57 58 59 61 62 63 64 64 65 66
165 163 154 156 161 160 161 160 162 166 168 170 174 175 175 172 170 173 175 172 170 175 177 177 177 181 198 213 215 217 224 234 249 259 266 278 294 308 319 326 331 335 345 351 349 349 353 359 7 16 28 37 47 63 80 92 95 93 84 79 81 76 66 58 54 59 63 58 54 56 55 54 54 53 53 55 57 58 59 60 62 64 64 65 65
165 164 155 157 161 163 165 163 166 174 177 178 181 179 174 171 171 174 174 172 175 184 188 189 189 190 200 210 217 224 237 254 270 282 291 302 312 316 318 322 326 330 338 344 345 350 356 3 10 18 27 36 46 58 76 93 97 96 88 81 82 76 65 58 49 50 61 60 54 55 55 54 55 56 55 54 56 58 60 60 60 62 63 65 65
174 174 165 164 165 165 166 165 169 177 181 181 182 180 173 169 170 173 175 175 180 194 202 203 205 204 208 215 222 233 247 264 278 289 298 307 312 311 310 313 317 322 330 335 337 346 360 8 12 19 30 37 46 60 74 92 97 94 88 84 83 74 60 56 51 47 56 61 56 54 55 54 53 56 59 58 58 59 61 62 61 62 62 64 65
183 186 180 175 173 171 171 174 176 177 180 181 179 176 170 167 166 165 171 176 183 199 212 218 220 218 220 227 237 249 261 269 277 286 291 297 301 300 300 301 305 312 321 325 328 343 359 10 15 21 30 35 47 68 83 94 96 90 83 82 79 67 52 54 56 53 58 64 60 55 56 58 56 55 59 62 63 63 64 65 65 64 63 63 64
187 194 193 189 187 184 182 185 185 184 185 186 183 179 176 173 168 160 161 167 177 198 215 226 228 224 229 240 251 260 266 268 271 276 279 283 288 292 298 301 305 314 321 325 336 352 360 11 21 24 30 35 49 73 86 92 95 92 88 88 79 58 47 55 58 55 60 66 63 55 53 57 59 57 58 62 66 67 68 69 69 69 67 66 65
193 197 200 200 200 198 195 196 197 196 196 197 196 195 194 194 190 179 173 177 183 195 205 208 212 220 233 245 255 263 268 269 271 277 283 286 288 297 313 322 324 328 329 334 347 359 1 10 23 29 36 44 57 76 85 89 96 105 110 110 98 65 51 59 58 53 59 66 65 57 51 51 53 55 56 58 64 68 70 73 74 74 72 70 69
202 201 206 208 207 207 207 205 206 206 207 209 211 211 211 210 210 206 203 204 205 209 214 212 216 230 244 255 264 279 290 292 294 301 310 313 313 318 328 330 329 328 327 332 340 350 1 12 23 36 49 56 66 78 88 99 116 132 136 133 127 90 58 58 53 48 53 63 65 58 55 53 50 53 55 54 58 64 70 74 76 78 78 75 74
216 210 212 215 215 214 213 213 214 215 217 220 221 222 223 223 223 222 221 223 227 229 233 232 231 240 254 267 276 286 291 297 302 304 306 309 315 323 323 316 317 316 316 322 329 345 12 28 34 46 57 64 74 87 105 130 151 160 156 148 145 94 47 43 41 39 42 54 62 59 60 59 54 53 55 53 52 57 66 73 77 79 80 79 78
233 225 220 221 223 223 223 224 225 225 226 228 227 226 230 232 232 231 230 232 236 240 245 247 247 248 255 266 273 276 274 270 272 276 284 298 313 320 315 313 317 319 321 325 331 351 21 37 47 59 66 75 89 107 130 154 175 182 182 180 212 318 7 21 24 27 32 41 53 57 58 58 51 46 48 49 46 48 57 69 77 79 81 84 84
237 236 231 227 226 228 233 237 238 238 236 237 236 234 235 237 237 239 240 240 239 243 248 252 256 258 259 264 270 276 277 273 267 267 279 301 324 329 327 333 341 342 341 342 345 3 27 42 63 74 80 95 109 116 127 140 158 175 217 252 282 313 338 358 5 9 18 28 38 43 41 44 46 44 44 44 39 36 45 61 74 80 83 86 91
234 238 239 237 234 232 235 242 246 246 244 243 243 242 239 239 242 247 250 250 247 248 252 257 263 266 266 268 274 277 281 286 285 282 290 312 345 1 3 1 353 346 343 343 349 2 18 36 72 84 84 98 104 97 92 72 37 24 324 293 306 325 335 344 350 356 4 16 27 28 23 20 22 30 41 44 35 22 21 39 68 85 90 90 91
231 237 242 245 243 240 239 242 243 248 251 250 247 246 246 245 247 254 259 260 258 257 260 267 272 275 275 275 277 277 280 286 289 290 297 311 335 5 20 2 333 326 324 326 335 342 351 7 25 39 29 24 37 45 38 15 354 337 317 311 313 318 327 333 339 348 354 360 10 17 12 2 350 341 344 347 349 349 344 347 8 59 107 107 101
231 236 242 248 250 246 243 243 243 245 251 255 255 253 253 252 254 259 264 268 270 268 267 269 276 283 286 283 280 279 280 284 287 289 295 303 307 309 313 295 288 294 300 307 319 327 335 346 348 346 354 5 9 11 6 353 344 334 320 314 315 318 324 329 332 337 338 338 345 356 356 343 322 307 303 303 299 295 296 299 307 306 273 240 213
230 233 239 245 249 248 246 246 247 247 249 253 257 258 260 260 260 264 268 270 271 270 269 266 267 275 283 283 277 274 273 274 276 280 284 289 290 291 288 278 273 274 280 291 299 306 313 318 314 316 335 356 356 353 354 347 337 328 316 309 311 317 322 322 321 325 326 323 326 333 334 322 305 294 291 293 292 285 280 281 285 287 276 257 244
231 231 234 239 244 246 246 245 247 248 249 251 253 255 258 261 262 264 268 270 270 269 270 271 271 272 273 271 266 263 264 265 269 274 278 278 276 276 274 268 265 266 269 277 285 289 291 288 288 299 316 333 338 336 340 335 324 318 313 308 309 313 314 308 305 311 312 309 310 314 311 299 292 291 287 284 279 274 274 274 275 276 272 263 252
233 232 232 235 239 241 243 244 245 246 247 249 252 254 255 257 259 259 261 264 265 265 268 272 273 270 268 266 263 262 263 265 270 275 279 279 275 271 270 268 267 268 268 270 274 277 278 279 284 294 305 314 321 324 326 324 319 319 317 309 306 307 306 299 295 296 295 294 298 305 299 288 288 291 289 284 276 271 272 272 272 270 268 266 262
232 231 232 234 237 238 239 241 243 244 245 248 251 254 255 256 257 256 255 256 258 261 262 261 262 264 267 269 270 271 270 270 269 271 273 275 276 277 277 278 277 275 275 274 272 271 271 276 281 288 295 301 307 312 317 319 319 321 318 310 306 306 302 295 290 286 281 283 289 294 293 290 293 296 293 287 283 280 279 277 274 271 268 267 267
231 231 231 233 235 237 238 239 240 242 244 247 249 251 253 254 255 255 253 252 254 256 256 255 256 258 263 268 273 275 274 272 270 269 270 272 275 277 277 280 283 284 285 286 284 281 280 282 284 286 290 295 301 308 313 317 319 318 313 306 305 305 302 295 289 286 284 281 282 285 289 292 298 301 298 293 290 286 283 281 278 275 273 272 271
229 231 232 233 234 236 237 239 240 241 242 244 246 247 249 251 252 253 252 251 251 252 253 256 257 256 257 261 266 270 272 271 270 268 268 268 270 274 276 279 284 287 288 289 290 288 286 286 285 286 289 294 299 304 310 313 315 313 308 304 304 305 304 298 293 296 297 285 280 284 289 296 304 304 300 297 293 289 284 281 279 277 275 274 273
228 230 233 235 235 236 237 240 243 245 245 246 247 249 249 251 252 254 256 256 254 253 252 253 254 256 257 257 259 263 266 267 268 268 267 265 264 267 270 274 278 282 284 287 289 288 286 285 284 285 287 291 295 299 304 307 308 307 305 306 307 309 310 302 299 305 309 293 279 281 285 289 295 296 293 291 289 289 288 285 284 283 280 277 274
235 233 234 236 238 239 239 241 244 247 248 248 248 249 250 251 253 253 254 256 258 259 258 257 258 259 259 260 260 260 261 264 266 267 267 268 267 266 268 271 274 275 280 284 286 287 287 286 286 286 287 290 293 296 298 300 301 300 301 303 305 308 312 310 303 305 308 305 295 292 292 293 297 298 296 291 288 288 288 288 287 285 282 280 277
243 241 238 238 241 242 242 241 243 245 247 247 248 248 249 250 250 250 250 251 253 256 258 259 260 261 263 264 263 262 263 265 266 265 265 268 271 273 275 276 276 276 279 283 285 287 288 288 289 290 290 291 292 293 294 294 295 295 295 295 297 300 304 307 300 295 298 301 301 301 302 303 306 308 306 301 296 293 291 289 287 285 283 280 278
243 245 243 240 241 245 247 247 246 246 247 247 248 250 251 252 252 251 251 251 252 253 254 254 256 258 260 262 263 264 265 266 266 266 266 266 269 273 277 279 281 282 283 284 285 286 288 290 291 291 291 291 292 292 292 292 291 291 290 289 288 290 293 297 296 292 291 293 296 299 302 302 304 306 307 305 303 300 296 293 290 287 285 283 281
237 243 245 242 240 243 248 252 253 253 252 251 250 252 253 254 254 253 252 252 252 253 254 254 255 255 256 258 261 263 264 265 265 265 266 266 267 271 274 276 278 280 281 282 284 284 285 287 289 290 291 292 292 292 291 291 289 288 286 284 282 283 286 289 290 290 290 289 290 293 295 294 294 297 301 302 302 301 299 296 294 292 290 288 285
236 239 243 243 241 240 242 247 252 255 257 255 253 253 254 254 255 254 253 252 252 252 253 255 256 257 256 256 258 261 264 266 267 267 267 268 270 273 275 275 276 277 278 278 278 279 280 281 282 283 286 290 292 292 291 289 287 284 281 278 277 276 278 281 284 286 286 286 286 286 287 286 285 286 290 293 296 297 296 296 295 294 293 291 288
241 242 243 245 244 242 241 239 240 245 251 254 256 255 255 255 255 255 255 255 254 255 255 255 256 257 258 259 260 261 263 266 268 269 268 267 269 271 272 274 276 276 275 275 277 280 280 279 278 279 281 285 288 290 290 287 285 282 277 275 274 273 273 274 275 277 278 280 282 284 285 285 285 285 286 288 289 292 293 294 293 292 291 290 288
243 242 240 242 243 244 244 242 240 240 243 248 253 255 256 255 255 255 256 257 258 258 258 258 257 258 259 261 262 262 263 264 266 266 266 265 266 267 268 270 271 270 272 276 280 282 277 272 272 276 279 282 285 285 285 284 282 281 279 277 277 277 277 276 274 274 275 276 278 281 284 286 287 288 289 289 289 290 291 292 291 289 288 286 285
242 241 240 242 243 244 245 246 245 245 245 246 249 252 254 254 254 255 256 258 260 260 260 260 260 260 260 261 263 264 264 263 262 261 262 263 263 263 264 265 265 267 272 276 279 280 278 273 273 273 271 276 282 282 280 281 279 278 278 278 278 279 279 279 278 276 276 276 278 280 283 285 287 288 288 289 290 290 290 290 290 288 287 285 284
245 245 243 244 246 247 249 249 249 248 247 247 248 249 250 252 253 254 255 257 259 260 261 263 263 263 264 265 265 266 265 264 265 267 266 265 264 264 264 264 267 271 276 276 275 277 279 278 277 273 264 267 277 280 278 277 278 277 276 276 277 278 279 279 279 277 276 276 277 278 279 281 284 285 287 288 288 289 289 288 288 287 287 286 284
248 250 247 246 250 253 254 253 252 250 247 247 250 250 250 250 251 253 254 255 257 259 261 263 264 264 265 265 265 264 263 264 268 270 267 263 262 263 264 267 271 274 277 279 280 281 281 278 276 273 265 265 276 282 280 276 275 274 275 275 276 276 277 277 277 275 274 275 276 276 277 278 280 282 284 285 286 286 286 286 286 286 286 286 285
Height
5914 5916 5918 5919 5921 5922 5924 5926 5927 5929 5930 5931 5931 5932 5933 5933 5933 5934 5934 5935 5935 5936 5936 5936 5936 5937 5937 5938 5938 5938 5938 5938 5938 5938 5937 5937 5936 5935 5935 5934 5934 5933 5932 5932 5931 5930 5928 5927 5925 5923 5921 5919 5918 5917 5916 5915 5914 5912 5910 5908 5904 5902 5899 5898 5896 5894 5891 5888 5885 5882 5879 5876 5873 5870 5867 5864 5859 5853 5848 5841 5833 5828 5824 5821 5820
5916 5917 5919 5921 5922 5924 5925 5927 5928 5929 5930 5931 5932 5933 5933 5934 5934 5934 5935 5935 5936 5936 5936 5937 5937 5938 5938 5939 5939 5940 5940 5939 5939 5939 5938 5938 5937 5936 5936 5935 5934 5934 5933 5933 5932 5931 5929 5928 5926 5924 5922 5920 5919 5917 5916 5915 5914 5913 5911 5909 5907 5904 5901 5899 5896 5894 5891 5888 5885 5883 5880 5877 5874 5871 5868 5865 5860 5855 5849 5843 5836 5831 5827 5824 5823
5918 5919 5921 5922 5924 5925 5926 5928 5929 5930 5931 5932 5933 5933 5934 5935 5935 5935 5935 5936 5936 5937 5937 5938 5938 5939 5939 5940 5940 5941 5941 5940 5940 5940 5939 5939 5938 5937 5937 5936 5935 5934 5934 5933 5932 5931 5930 5929 5927 5925 5923 5922 5920 5918 5917 5915 5914 5913 5912 5910 5908 5905 5903 5901 5898 5895 5893 5890 5887 5884 5881 5878 5875 5872 5869 5866 5863 5858 5852 5846 5841 5836 5832 5829 5828
5919 5921 5922 5924 5925 5926 5927 5929 5930 5931 5932 5933 5933 5934 5935 5935 5935 5936 5936 5936 5937 5937 5938 5938 5939 5939 5940 5940 5941 5941 5942 5941 5941 5941 5940 5939 5939 5938 5938 5937 5936 5935 5934 5933 5933 5932 5931 5929 5928 5926 5924 5923 5921 5919 5918 5916 5915 5913 5912 5910 5908 5906 5903 5901 5899 5896 5893 5891 5888 5885 5882 5879 5877 5874 5871 5868 5865 5861 5856 5851 5847 5842 5839 5836 5835
5921 5923 5924 5925 5927 5928 5929 5930 5931 5932 5933 5933 5934 5935 5935 5936 5936 5936 5936 5937 5937 5938 5938 5939 5939 5940 5941 5941 5942 5942 5942 5942 5942 5941 5941 5940 5940 5939 5938 5938 5937 5936 5935 5934 5933 5932 5931 5930 5928 5927 5926 5924 5922 5921 5919 5917 5916 5914 5912 5910 5908 5906 5903 5901 5899 5897 5894 5891 5888 5886 5883 5881 5878 5876 5873 5871 5868 5865 5861 5857 5853 5849 5846 5844 5843
5923 5924 5925 5926 5928 5929 5930 5931 5932 5933 5933 5934 5935 5935 5936 5936 5937 5937 5937 5937 5937 5938 5938 5939 5940 5940 5941 5942 5942 5943 5943 5943 5943 5942 5942 5941 5940 5940 5939 5938 5937 5936 5935 5934 5933 5932 5931 5930 5929 5928 5927 5925 5924 5922 5920 5919 5917 5915 5913 5911 5909 5907 5904 5902 5900 5898 5896 5893 5890 5888 5885 5883 5881 5878 5876 5874 5872 5870 5867 5863 5860 5857 5854 5852 5852
5924 5925 5926 5928 5929 5930 5931 5932 5933 5933 5934 5935 5935 5936 5936 5937 5937 5937 5937 5937 5938 5938 5939 5939 5940 5941 5941 5942 5943 5943 5944 5944 5943 5943 5942 5942 5941 5940 5940 5939 5938 5937 5936 5934 5933 5933 5932 5931 5930 5929 5927 5926 5925 5923 5922 5920 5918 5916 5914 5912 5910 5908 5906 5904 5902 5900 5898 5896 5893 5890 5888 5886 5884 5881 5879 5878 5876 5874 5872 5869 5867 5864 5863 5861 5860
5926 5927 5928 5929 5930 5931 5932 5933 5933 5934 5934 5935 5936 5936 5936 5937 5937 5938 5938 5938 5938 5939 5939 5940 5940 5941 5942 5942 5943 5944 5944 5944 5944 5943 5943 5942 5941 5941 5940 5939 5938 5937 5936 5935 5934 5933 5932 5931 5930 5929 5928 5927 5926 5924 5923 5921 5920 5918 5916 5914 5912 5910 5908 5907 5905 5903 5901 5899 5896 5894 5892 5889 5887 5885 5883 5881 5879 5877 5876 5874 5872 5871 5870 5869 5869
5927 5928 5929 5930 5931 5932 5933 5933 5934 5935 5935 5935 5936 5936 5937 5937 5937 5938 5938 5938 5939 5939 5940 5940 5941 5941 5942 5943 5943 5944 5944 5944 5944 5944 5943 5942 5942 5941 5940 5939 5939 5937 5936 5935 5934 5934 5933 5932 5931 5930 5929 5928 5926 5925 5924 5922 5921 5919 5917 5915 5914 5912 5910 5908 5907 5905 5903 5902 5899 5897 5895 5893 5891 5888 5886 5885 5883 5881 5880 5878 5877 5876 5876 5875 5875
5929 5930 5930 5931 5932 5933 5934 5934 5935 5935 5936 5936 5936 5936 5937 5937 5938 5939 5939 5939 5939 5940 5940 5941 5941 5942 5942 5943 5944 5944 5944 5944 5944 5944 5943 5942 5942 5941 5941 5940 5939 5938 5937 5936 5935 5934 5934 5933 5932 5930 5930 5928 5927 5926 5925 5924 5922 5921 5919 5917 5915 5914 5912 5910 5908 5907 5906 5904 5902 5900 5898 5896 5894 5891 5889 5888 5886 5885 5884 5883 5882 5881 5881 5881 5881
5930 5931 5932 5932 5933 5934 5934 5935 5935 5936 5936 5936 5936 5937 5937 5938 5938 5939 5939 5939 5939 5940 5941 5941 5942 5942 5943 5943 5944 5944 5944 5944 5944 5944 5943 5942 5942 5942 5941 5940 5939 5938 5937 5936 5935 5935 5934 5934 5932 5931 5930 5929 5928 5927 5926 5925 5923 5922 5920 5918 5917 5915 5913 5912 5910 5909 5908 5906 5905 5903 5901 5899 5897 5895 5893 5891 5890 5889 5888 5887 5886 5886 5885 5885 5885
5931 5932 5933 5933 5934 5935 5935 5936 5936 5936 5937 5937 5937 5937 5937 5938 5939 5939 5939 5940 5940 5941 5941 5942 5942 5943 5943 5944 5944 5944 5944 5944 5944 5944 5943 5942 5942 5942 5941 5941 5940 5939 5938 5937 5936 5935 5935 5934 5933 5932 5931 5930 5929 5928 5927 5926 5924 5923 5921 5919 5918 5917 5915 5913 5912 5910 5909 5908 5907 5905 5903 5901 5900 5898 5896 5894 5893 5892 5891 5890 5890 5889 5889 5889 5889
5932 5933 5934 5934 5935 5935 5936 5936 5936 5937 5937 5937 5937 5937 5937 5938 5939 5939 5940 5940 5941 5941 5942 5942 5943 5943 5943 5944 5944 5944 5944 5944 5944 5943 5943 5942 5942 5942 5941 5941 5940 5939 5939 5938 5937 5936 5936 5935 5935 5933 5932 5931 5930 5929 5928 5927 5926 5925 5923 5921 5920 5918 5917 5915 5914 5912 5911 5910 5909 5907 5906 5904 5902 5901 5899 5898 5896 5895 5894 5894 5893 5893 5893 5893 5893
5934 5934 5935 5935 5936 5936 5936 5937 5937 5937 5937 5938 5938 5938 5938 5938 5939 5940 5940 5940 5941 5941 5942 5942 5943 5943 5944 5944 5944 5944 5944 5944 5944 5943 5942 5942 5942 5942 5942 5942 5941 5940 5939 5939 5938 5937 5937 5936 5936 5934 5933 5932 5931 5929 5928 5928 5927 5926 5924 5922 5921 5920 5918 5916 5915 5914 5913 5912 5911 5910 5908 5907 5905 5904 5902 5901 5900 5899 5898 5897 5896 5896 5896 5896 5896
5934 5935 5935 5936 5936 5936 5937 5937 5937 5937 5938 5938 5938 5938 5938 5939 5939 5940 5940 5941 5941 5942 5942 5942 5943 5943 5944 5944 5944 5944 5944 5944 5943 5943 5942 5942 5942 5942 5942 5942 5941 5940 5940 5939 5939 5938 5937 5937 5937 5935 5934 5933 5931 5930 5929 5929 5928 5927 5925 5924 5923 5921 5920 5918 5917 5916 5914 5914 5913 5912 5911 5910 5908 5907 5905 5904 5903 5902 5901 5900 5900 5899 5899 5899 5899
5935 5935 5936 5936 5937 5937 5937 5937 5937 5937 5938 5938 5938 5938 5938 5939 5940 5940 5940 5941 5941 5942 5942 5942 5943 5943 5944 5944 5944 5943 5943 5944 5944 5943 5943 5943 5943 5943 5942 5942 5942 5941 5941 5940 5939 5938 5938 5938 5937 5936 5935 5934 5932 5931 5931 5930 5929 5928 5927 5925 5924 5923 5921 5920 5919 5918 5916 5915 5915 5914 5913 5912 5911 5910 5908 5907 5906 5905 5904 5903 5903 5902 5902 5902 5902
5935 5935 5936 5937 5937 5937 5937 5937 5938 5938 5938 5938 5938 5938 5939 5939 5940 5940 5941 5941 5941 5942 5943 5943 5943 5944 5944 5944 5944 5943 5943 5944 5944 5944 5944 5943 5943 5943 5943 5943 5942 5942 5941 5941 5940 5939 5939 5938 5937 5936 5935 5934 5933 5932 5932 5931 5930 5929 5928 5927 5925 5924 5923 5922 5920 5919 5918 5917 5916 5916 5915 5914 5913 5912 5911 5910 5909 5908 5907 5906 5906 5905 5905 5905 5905
5935 5936 5936 5937 5937 5937 5937 5938 5938 5938 5938 5938 5938 5939 5939 5939 5940 5941 5941 5941 5942 5943 5943 5944 5944 5944 5944 5944 5944 5944 5944 5944 5944 5944 5944 5944 5943 5943 5943 5943 5942 5942 5941 5941 5940 5940 5939 5939 5938 5937 5936 5935 5934 5933 5933 5932 5931 5930 5929 5928 5927 5926 5925 5923 5922 5921 5920 5919 5918 5918 5917 5917 5916 5915 5914 5913 5912 5911 5910 5909 5909 5908 5908 5907 5907
5935 5935 5936 5936 5937 5937 5937 5938 5938 5939 5939 5939 5939 5939 5939 5940 5940 5941 5941 5942 5943 5944 5944 5944 5944 5944 5944 5944 5944 5944 5944 5944 5944 5944 5944 5944 5943 5943 5943 5942 5942 5942 5942 5942 5941 5941 5940 5939 5938 5938 5937 5936 5935 5934 5933 5933 5932 5931 5930 5929 5928 5927 5927 5925 5924 5923 5922 5921 5920 5920 5919 5918 5918 5917 5916 5915 5915 5914 5913 5912 5911 5911 5911 5910 5910
5935 5936 5936 5936 5937 5937 5937 5938 5938 5939 5939 5939 5939 5940 5940 5940 5941 5941 5942 5943 5944 5944 5945 5945 5944 5944 5944 5944 5944 5944 5944 5944 5944 5944 5944 5943 5943 5943 5943 5942 5942 5942 5942 5942 5942 5941 5941 5940 5939 5938 5937 5936 5936 5935 5934 5933 5933 5932 5932 5931 5930 5929 5928 5927 5926 5925 5924 5923 5922 5921 5921 5920 5920 5919 5918 5917 5917 5916 5916 5915 5914 5914 5913 5913 5913
5935 5936 5936 5937 5937 5937 5938 5938 5939 5939 5940 5940 5940 5940 5941 5941 5942 5942 5943 5943 5944 5944 5945 5945 5944 5944 5945 5945 5944 5944 5944 5944 5944 5944 5944 5943 5943 5943 5943 5943 5943 5943 5942 5942 5942 5942 5941 5940 5939 5938 5937 5937 5936 5936 5935 5934 5934 5933 5933 5932 5931 5930 5930 5929 5928 5926 5926 5925 5924 5923 5923 5922 5921 5921 5920 5919 5919 5918 5918 5918 5917 5916 5916 5915 5915
5935 5936 5936 5937 5937 5938 5938 5938 5939 5939 5940 5940 5941 5941 5941 5942 5942 5943 5943 5944 5944 5944 5944 5944 5944 5944 5944 5944 5944 5944 5944 5944 5944 5944 5944 5944 5943 5943 5943 5943 5943 5942 5942 5943 5943 5942 5941 5940 5939 5938 5938 5937 5937 5936 5935 5935 5934 5934 5934 5934 5933 5932 5931 5930 5929 5928 5927 5927 5926 5925 5924 5924 5923 5922 5922 5921 5921 5920 5920 5920 5919 5919 5918 5918 5918
5936 5936 5937 5937 5938 5938 5938 5939 5939 5940 5940 5941 5941 5942 5942 5943 5943 5943 5944 5944 5944 5944 5944 5944 5944 5944 5944 5944 5944 5944 5944 5944 5945 5944 5944 5944 5943 5943 5943 5943 5943 5943 5943 5943 5943 5942 5941 5940 5939 5939 5938 5937 5937 5937 5936 5936 5935 5935 5935 5935 5934 5934 5933 5932 5931 5930 5929 5928 5928 5927 5926 5926 5925 5924 5923 5923 5923 5922 5922 5922 5921 5921 5921 5920 5920
5936 5937 5937 5938 5938 5939 5939 5939 5940 5940 5941 5941 5942 5942 5943 5943 5943 5944 5944 5944 5944 5944 5945 5945 5945 5945 5944 5944 5944 5944 5944 5944 5945 5945 5944 5944 5944 5944 5944 5943 5943 5943 5943 5943 5943 5942 5941 5940 5940 5939 5938 5938 5938 5937 5937 5936 5936 5936 5936 5936 5935 5935 5934 5933 5932 5931 5930 5929 5929 5929 5928 5928 5927 5926 5925 5924 5924 5924 5924 5923 5923 5923 5923 5923 5922
5937 5937 5938 5939 5939 5939 5940 5940 5940 5941 5941 5942 5942 5943 5943 5943 5943 5944 5944 5945 5945 5945 5945 5945 5945 5945 5945 5945 5945 5945 5945 5945 5945 5945 5945 5944 5944 5944 5944 5944 5944 5944 5944 5943 5943 5942 5941 5941 5940 5940 5939 5939 5938 5938 5938 5937 5937 5937 5937 5937 5936 5936 5935 5934 5933 5932 5931 5930 5930 5930 5930 5929 5928 5928 5927 5926 5925 5925 5925 5925 5924 5924 5924 5924 5924
5937 5938 5938 5939 5939 5940 5940 5941 5941 5941 5942 5942 5942 5943 5943 5943 5943 5944 5944 5944 5945 5945 5946 5946 5946 5946 5946 5945 5945 5945 5945 5945 5945 5945 5945 5945 5945 5945 5945 5945 5945 5945 5944 5944 5943 5942 5942 5941 5941 5940 5940 5939 5939 5938 5938 5938 5938 5938 5938 5937 5937 5936 5936 5935 5934 5933 5932 5931 5931 5931 5931 5930 5930 5929 5929 5928 5927 5926 5926 5926 5925 5925 5926 5926 5926
5937 5938 5938 5939 5939 5940 5940 5941 5941 5942 5942 5942 5942 5943 5943 5943 5944 5944 5944 5944 5944 5945 5945 5946 5946 5946 5946 5945 5945 5946 5946 5946 5946 5946 5946 5945 5945 5945 5945 5945 5945 5945 5944 5944 5943 5943 5942 5942 5941 5940 5940 5939 5939 5939 5939 5938 5938 5938 5938 5937 5937 5936 5936 5935 5935 5934 5933 5932 5932 5932 5932 5932 5931 5931 5930 5930 5929 5928 5927 5927 5927 5926 5926 5927 5927
5937 5938 5938 5939 5939 5940 5940 5941 5941 5942 5942 5942 5942 5943 5943 5943 5944 5944 5944 5944 5944 5944 5944 5945 5945 5945 5945 5945 5945 5946 5946 5945 5945 5945 5945 5945 5945 5945 5946 5946 5945 5945 5944 5944 5943 5943 5942 5942 5941 5941 5940 5940 5939 5939 5939 5939 5938 5938 5938 5937 5937 5937 5937 5936 5935 5935 5934 5933 5933 5933 5933 5932 5932 5932 5931 5931 5931 5930 5929 5929 5928 5928 5928 5927 5927
5937 5938 5938 5939 5939 5939 5940 5940 5941 5941 5942 5942 5942 5943 5943 5943 5944 5944 5944 5944 5944 5944 5944 5944 5945 5945 5945 5945 5945 5945 5945 5945 5945 5945 5945 5945 5945 5945 5946 5946 5946 5945 5945 5944 5943 5943 5943 5942 5942 5941 5941 5940 5940 5939 5939 5938 5938 5938 5938 5937 5937 5937 5937 5937 5936 5935 5935 5934 5934 5934 5933 5933 5933 5932 5932 5932 5932 5932 5931 5930 5930 5929 5929 5929 5929
5937 5938 5938 5938 5939 5939 5940 5940 5940 5941 5941 5942 5942 5942 5942 5943 5943 5943 5943 5943 5944 5944 5944 5944 5944 5944 5944 5944 5945 5945 5945 5945 5945 5945 5945 5945 5945 5946 5946 5946 5946 5946 5945 5944 5943 5943 5942 5942 5942 5941 5941 5941 5940 5940 5939 5939 5939 5938 5938 5938 5938 5938 5937 5937 5936 5935 5935 5934 5934 5934 5934 5934 5933 5933 5933 5933 5933 5932 5932 5932 5931 5931 5930 5930 5930
5936 5937 5938 5938 5939 5939 5939 5940 5940 5940 5941 5941 5941 5942 5942 5942 5943 5943 5943 5943 5944 5944 5944 5944 5944 5944 5944 5944 5944 5944 5945 5945 5945 5945 5945 5945 5945 5945 5945 5945 5945 5945 5944 5944 5943 5943 5942 5942 5942 5942 5942 5941 5941 5940 5940 5940 5939 5939 5939 5939 5938 5938 5937 5937 5936 5936 5935 5935 5934 5934 5934 5934 5934 5934 5934 5933 5933 5933 5933 5932 5932 5931 5931 5931 5930
5935 5936 5937 5938 5938 5939 5939 5939 5940 5940 5940 5940 5941 5941 5941 5942 5942 5942 5943 5943 5944 5944 5944 5944 5944 5944 5944 5944 5944 5944 5944 5944 5944 5944 5944 5944 5945 5945 5945 5945 5945 5944 5944 5944 5943 5943 5943 5943 5943 5943 5942 5942 5942 5942 5941 5941 5940 5940 5939 5939 5938 5938 5937 5937 5936 5936 5935 5935 5934 5934 5934 5934 5934 5934 5934 5933 5933 5933 5933 5932 5932 5932 5932 5931 5931
5934 5935 5936 5937 5937 5938 5938 5938 5939 5939 5939 5939 5940 5940 5940 5941 5941 5942 5942 5943 5943 5943 5943 5944 5943 5943 5943 5943 5943 5943 5944 5944 5944 5944 5944 5944 5944 5944 5944 5944 5944 5944 5944 5944 5943 5943 5943 5943 5943 5943 5943 5943 5943 5943 5942 5942 5941 5940 5939 5939 5938 5938 5937 5937 5936 5935 5935 5935 5934 5934 5934 5934 5934 5934 5933 5933 5933 5933 5933 5933 5932 5932 5932 5932 5932
5933 5934 5935 5936 5936 5937 5937 5938 5938 5938 5938 5938 5939 5939 5939 5940 5940 5941 5941 5942 5942 5942 5943 5943 5943 5943 5943 5943 5943 5943 5943 5943 5943 5943 5943 5943 5943 5943 5943 5943 5943 5943 5943 5943 5943 5943 5942 5942 5943 5943 5943 5943 5943 5943 5942 5942 5941 5940 5940 5939 5939 5938 5937 5937 5936 5935 5935 5934 5934 5934 5934 5933 5933 5933 5932 5932 5932 5933 5933 5932 5932 5932 5932 5932 5932
5931 5932 5933 5934 5935 5936 5936 5936 5937 5937 5937 5937 5937 5938 5938 5939 5939 5940 5940 5941 5941 5941 5942 5942 5942 5942 5943 5943 5943 5942 5942 5942 5943 5943 5943 5943 5943 5943 5943 5943 5943 5943 5942 5942 5942 5942 5941 5941 5942 5942 5942 5942 5942 5942 5942 5941 5941 5940 5939 5939 5938 5938 5937 5936 5935 5935 5934 5934 5933 5933 5933 5932 5932 5932 5932 5932 5932 5932 5932 5932 5932 5932 5932 5932 5931
5929 5930 5931 5932 5933 5933 5934 5935 5935 5935 5936 5936 5936 5936 5937 5937 5938 5938 5939 5939 5940 5940 5941 5941 5941 5942 5942 5942 5942 5942 5941 5941 5942 5942 5942 5942 5942 5942 5942 5942 5942 5942 5942 5941 5941 5941 5941 5941 5941 5941 5941 5942 5942 5942 5941 5941 5940 5940 5939 5938 5938 5937 5936 5935 5935 5934 5934 5933 5932 5932 5932 5931 5931 5931 5931 5931 5931 5931 5930 5930 5931 5931 5930 5930 5930
5927 5927 5928 5929 5930 5931 5932 5932 5933 5933 5934 5934 5935 5935 5935 5936 5936 5937 5937 5938 5938 5938 5939 5940 5940 5940 5940 5940 5940 5940 5940 5941 5941 5941 5942 5942 5942 5942 5942 5942 5942 5942 5941 5941 5941 5941 5941 5940 5940 5940 5941 5941 5941 5941 5941 5940 5940 5939 5939 5938 5937 5936 5936 5935 5934 5934 5933 5932 5932 5931 5931 5931 5930 5930 5930 5930 5930 5929 5929 5929 5929 5929 5929 5929 5929
5924 5925 5925 5926 5927 5928 5929 5930 5931 5932 5932 5932 5933 5933 5934 5934 5935 5935 5936 5936 5937 5937 5937 5937 5938 5938 5938 5939 5939 5939 5939 5940 5940 5940 5941 5941 5941 5942 5942 5942 5941 5941 5941 5941 5940 5940 5940 5940 5940 5940 5940 5940 5940 5940 5940 5940 5939 5939 5938 5937 5936 5935 5935 5934 5933 5933 5932 5931 5931 5930 5930 5930 5930 5930 5929 5929 5929 5928 5928 5928 5928 5928 5927 5927 5928
5921 5921 5922 5923 5924 5925 5927 5928 5929 5929 5930 5930 5931 5931 5932 5933 5933 5934 5934 5935 5935 5935 5935 5935 5936 5936 5936 5937 5937 5938 5938 5938 5939 5939 5939 5939 5940 5940 5940 5941 5941 5941 5941 5940 5940 5939 5939 5939 5939 5939 5939 5939 5939 5939 5939 5939 5938 5938 5937 5936 5935 5934 5934 5933 5932 5932 5932 5931 5930 5930 5929 5929 5929 5929 5929 5928 5928 5927 5926 5926 5926 5926 5926 5926 5926
5917 5918 5919 5919 5921 5922 5924 5925 5926 5927 5928 5928 5928 5929 5930 5931 5931 5932 5933 5933 5933 5933 5934 5934 5934 5934 5934 5935 5935 5936 5936 5937 5937 5937 5937 5937 5938 5938 5939 5939 5939 5939 5939 5939 5939 5938 5938 5938 5938 5938 5938 5938 5937 5937 5937 5937 5936 5936 5935 5934 5934 5933 5933 5932 5931 5931 5931 5931 5929 5929 5929 5929 5929 5929 5928 5927 5926 5925 5925 5925 5925 5925 5925 5925 5925
5915 5915 5916 5917 5918 5919 5920 5922 5923 5924 5925 5925 5926 5927 5928 5928 5929 5930 5931 5931 5931 5932 5932 5932 5932 5932 5933 5933 5933 5934 5934 5934 5935 5935 5935 5935 5935 5936 5936 5936 5937 5937 5937 5937 5937 5937 5937 5936 5936 5936 5936 5936 5935 5935 5935 5935 5934 5933 5932 5932 5932 5932 5933 5932 5930 5930 5930 5930 5929 5929 5929 5929 5928 5928 5927 5926 5925 5924 5924 5924 5923 5923 5923 5923 5923
5913 5913 5914 5915 5916 5916 5918 5919 5921 5922 5922 5923 5923 5924 5925 5926 5927 5928 5929 5929 5929 5929 5930 5930 5931 5931 5931 5931 5932 5932 5932 5932 5933 5933 5933 5933 5934 5934 5934 5934 5934 5935 5935 5935 5935 5935 5935 5935 5935 5934 5934 5934 5934 5933 5933 5933 5932 5932 5931 5930 5930 5931 5931 5931 5930 5929 5929 5929 5929 5928 5928 5928 5928 5927 5926 5926 5925 5924 5923 5923 5922 5922 5921 5921 5920
5912 5912 5912 5913 5914 5914 5915 5916 5918 5918 5919 5920 5921 5921 5922 5923 5924 5925 5926 5926 5926 5927 5927 5928 5929 5929 5929 5930 5930 5930 5930 5931 5931 5931 5931 5931 5932 5932 5932 5932 5932 5932 5933 5933 5933 5933 5933 5933 5933 5932 5932 5932 5932 5931 5930 5930 5930 5929 5929 5929 5929 5929 5929 5930 5929 5928 5927 5927 5927 5927 5926 5926 5926 5925 5925 5924 5924 5923 5922 5922 5921 5920 5920 5919 5918
5908 5909 5910 5910 5911 5912 5913 5913 5914 5915 5916 5917 5918 5919 5920 5920 5921 5922 5923 5923 5924 5924 5924 5925 5926 5926 5927 5927 5928 5928 5928 5928 5929 5929 5929 5929 5930 5930 5930 5930 5930 5930 5930 5930 5930 5930 5930 5930 5930 5930 5930 5930 5929 5929 5928 5928 5928 5927 5927 5927 5927 5927 5927 5927 5927 5927 5926 5925 5925 5925 5924 5924 5924 5924 5923 5923 5922 5922 5921 5921 5920 5919 5918 5918 5917
5903 5905 5907 5908 5908 5909 5910 5911 5912 5912 5913 5914 5916 5916 5917 5918 5919 5919 5920 5921 5921 5921 5922 5922 5922 5923 5924 5924 5925 5925 5925 5926 5926 5927 5927 5927 5927 5928 5928 5928 5928 5928 5927 5927 5926 5926 5926 5926 5927 5927 5927 5927 5927 5926 5926 5926 5925 5925 5925 5924 5924 5924 5924 5925 5925 5924 5923 5923 5922 5922 5921 5921 5921 5921 5921 5921 5921 5920 5920 5920 5919 5918 5917 5917 5916
5900 5901 5903 5905 5905 5906 5906 5907 5908 5910 5910 5911 5912 5913 5914 5915 5916 5916 5917 5917 5918 5918 5919 5919 5920 5920 5921 5921 5922 5922 5922 5923 5924 5924 5924 5925 5925 5925 5925 5925 5925 5924 5924 5923 5922 5922 5922 5922 5923 5923 5923 5923 5923 5924 5923 5923 5923 5923 5923 5922 5922 5921 5922 5922 5922 5921 5920 5919 5919 5919 5918 5917 5917 5918 5918 5919 5919 5918 5918 5918 5917 5917 5916 5915 5914
5899 5899 5901 5903 5903 5903 5902 5903 5903 5905 5906 5907 5908 5909 5910 5911 5912 5913 5914 5914 5915 5915 5916 5916 5917 5917 5917 5918 5919 5919 5919 5920 5920 5921 5921 5922 5922 5922 5922 5922 5921 5921 5920 5919 5918 5919 5919 5919 5919 5920 5920 5920 5920 5920 5920 5920 5921 5921 5920 5920 5919 5919 5919 5919 5920 5919 5917 5916 5915 5915 5915 5913 5913 5914 5915 5916 5916 5915 5915 5915 5915 5914 5914 5913 5912
5896 5897 5899 5899 5899 5899 5900 5900 5900 5901 5902 5903 5905 5906 5907 5907 5908 5909 5910 5911 5912 5912 5912 5913 5913 5914 5915 5915 5916 5916 5916 5917 5917 5917 5917 5918 5918 5918 5918 5917 5917 5916 5916 5916 5917 5917 5917 5917 5917 5918 5919 5918 5917 5917 5917 5917 5917 5917 5917 5917 5916 5916 5915 5916 5917 5916 5915 5913 5912 5912 5912 5910 5909 5910 5911 5912 5912 5912 5912 5911 5911 5911 5910 5909 5909
5893 5894 5895 5895 5896 5896 5897 5898 5898 5898 5899 5900 5901 5902 5903 5903 5904 5905 5906 5907 5908 5909 5909 5909 5910 5911 5911 5912 5912 5913 5913 5913 5913 5913 5913 5913 5914 5914 5914 5913 5912 5913 5914 5915 5916 5915 5914 5915 5915 5916 5917 5915 5913 5913 5913 5913 5913 5914 5914 5914 5914 5913 5913 5912 5913 5913 5912 5910 5910 5910 5909 5908 5906 5906 5907 5908 5908 5908 5908 5908 5908 5907 5906 5906 5905
5889 5890 5891 5892 5892 5893 5893 5894 5895 5896 5897 5897 5897 5898 5899 5900 5900 5901 5902 5903 5904 5905 5905 5905 5906 5907 5907 5908 5908 5909 5909 5909 5910 5910 5910 5910 5910 5910 5909 5908 5909 5911 5912 5912 5912 5911 5910 5910 5910 5910 5911 5910 5909 5909 5909 5909 5909 5909 5910 5910 5910 5910 5909 5909 5909 5910 5909 5908 5907 5907 5906 5905 5904 5902 5903 5904 5905 5905 5904 5904 5904 5903 5903 5902 5902
5885 5886 5888 5889 5888 5889 5889 5890 5891 5893 5894 5894 5894 5895 5896 5896 5897 5898 5899 5900 5901 5901 5901 5902 5902 5902 5903 5903 5904 5904 5904 5905 5906 5905 5904 5905 5905 5905 5905 5904 5906 5907 5907 5906 5906 5906 5905 5905 5905 5905 5906 5905 5905 5904 5904 5904 5904 5905 5905 5905 5906 5905 5906 5905 5905 5905 5905 5904 5903 5903 5903 5902 5901 5899 5899 5899 5900 5901 5900 5900 5900 5899 5899 5898 5898